Flag for U.S.A. Weather past 2 weeks in Brattleboro, Vermont, U.S.A.

Now
63 °F

Clear.


Feels Like: 63 °F
Forecast: 51 / 79 °F
Wind: No wind

Location: Keene / Dillant

Current Time: May 24, 2015 at 9:38:25 PM

Latest Report: May 24, 2015 at 9:15 PM


Visibility: 10 mi

Pressure: 30.20 "Hg

Humidity: 45%

Dew point: 41 °F

Location of BrattleboroLocation

Historic Weather in Brattleboro — Graph

°F

Brattleboro temperature yesterday

Maximum temperature yesterday: 63 °F (at 4:55 PM)
Minimum temperature yesterday: 36 °F (at 4:55 AM)
Average temperature yesterday: 49 °F

Past Weeks' High & Low Weather Summary

 TemperatureHumidityPressure
High88 °F (May 10, 3:15 PM)94% (May 10, 4:55 AM)30.40 "Hg (May 10, 4:55 AM)
Low30 °F (May 14, 5:55 AM)18% (May 15, 4:15 PM)29.66 "Hg (May 12, 3:55 PM)
Average59 °F61%30.07 "Hg
* Reported May 9 8:15 PM — May 24 8:35 PM, Brattleboro, Weather by CustomWeather, © 2015

Note: Actual official high and low records may vary slightly from our data, if they occured in-between our weather recording intervals... More about our weather records

Advertising

Brattleboro weather history for previous 24 hours

 ConditionsComfort  
Time TempWeatherWind HumidityBarometerVisibility
8:35 PM
Sun, May 24
66 °FSunny.3 mph37%30.18 "Hg10 mi
8:15 PM70 °FSunny.5 mph33%30.18 "Hg10 mi
7:55 PM73 °FSunny.3 mph25%30.17 "Hg10 mi
7:35 PMN/ASunny.5 mphN/A30.17 "Hg10 mi
7:15 PMN/ASunny.7 mphN/A30.17 "Hg10 mi
6:55 PMN/ASunny.6 mphN/A30.16 "Hg10 mi
6:35 PMN/ASunny.9 mphN/A30.16 "Hg10 mi
6:15 PMN/ASunny.7 mphN/A30.16 "Hg10 mi
5:35 PMN/ASunny.12 mphN/A30.16 "Hg10 mi
5:15 PMN/ASunny.12 mphN/A30.16 "Hg10 mi
4:55 PMN/ASunny.10 mphN/A30.16 "Hg10 mi
4:35 PMN/ASunny.14 mphN/A30.16 "Hg10 mi
4:15 PMN/ASunny.14 mphN/A30.16 "Hg10 mi
3:55 PMN/ASunny.13 mphN/A30.16 "Hg10 mi
3:35 PMN/ASunny.12 mphN/A30.17 "Hg10 mi
3:15 PMN/ASunny.13 mphN/A30.17 "Hg10 mi
2:55 PMN/ASunny.14 mphN/A30.17 "Hg10 mi
2:35 PMN/ASunny.13 mphN/A30.18 "Hg10 mi
2:15 PMN/ASunny.15 mphN/A30.18 "Hg10 mi
1:55 PMN/ASunny.14 mphN/A30.19 "Hg10 mi
1:35 PMN/ASunny.13 mphN/A30.19 "Hg10 mi
1:15 PMN/ASunny.13 mphN/A30.20 "Hg10 mi
12:55 PMN/ASunny.12 mphN/A30.20 "Hg10 mi
12:35 PMN/ASunny.14 mphN/A30.21 "Hg10 mi
12:15 PMN/ASunny.13 mphN/A30.21 "Hg10 mi
11:55 AMN/ASunny.16 mphN/A30.22 "Hg10 mi
11:35 AMN/ASunny.10 mphN/A30.22 "Hg10 mi
11:15 AMN/ASunny.9 mphN/A30.23 "Hg10 mi
10:55 AMN/ASunny.14 mphN/A30.23 "Hg10 mi
10:35 AMN/ASunny.12 mphN/A30.24 "Hg10 mi
10:15 AM70 °FSunny.7 mph31%30.25 "Hg10 mi
9:55 AM68 °FSunny.8 mph33%30.26 "Hg10 mi
9:35 AM64 °FSunny.3 mph37%30.26 "Hg10 mi
9:15 AM63 °FSunny.5 mph39%30.27 "Hg10 mi
8:55 AM59 °FSunny.6 mph48%30.28 "Hg10 mi
8:35 AM55 °FSunny.No wind51%30.28 "Hg10 mi
8:15 AM52 °FSunny.No wind58%30.28 "Hg10 mi
7:55 AM50 °FSunny.No wind62%30.28 "Hg10 mi
7:35 AM46 °FSunny.No wind66%30.28 "Hg10 mi
7:15 AM45 °FSunny.No wind71%30.28 "Hg10 mi
6:55 AM41 °FSunny.No wind81%30.28 "Hg10 mi
6:35 AM39 °FSunny.No wind81%30.29 "Hg10 mi
6:15 AM37 °FPassing clouds.No wind87%30.29 "Hg10 mi
5:55 AMN/APassing clouds.No windN/A30.28 "Hg10 mi
5:35 AM37 °FClear.No wind87%30.29 "Hg10 mi
5:15 AMN/APassing clouds.No windN/A30.27 "Hg10 mi
4:55 AM37 °FPassing clouds.No wind87%30.27 "Hg10 mi
4:35 AM37 °FPassing clouds.No wind87%30.26 "Hg10 mi
4:15 AM37 °FPassing clouds.No wind87%30.27 "Hg10 mi
3:55 AM36 °FPassing clouds.No wind87%30.28 "Hg10 mi
3:35 AM37 °FPassing clouds.No wind87%30.27 "Hg10 mi
3:15 AM37 °FClear.No wind81%30.28 "Hg10 mi
2:55 AM37 °FClear.No wind87%30.28 "Hg10 mi
2:35 AMN/AClear.No windN/A30.27 "Hg10 mi
2:15 AM37 °FClear.No wind81%30.28 "Hg10 mi
1:55 AM37 °FClear.3 mph81%30.28 "Hg10 mi
1:35 AM39 °FClear.No wind75%30.28 "Hg10 mi
1:15 AM39 °FClear.3 mph75%30.28 "Hg10 mi
12:55 AM41 °FClear.No wind70%30.28 "Hg10 mi
12:35 AM43 °FClear.No wind61%30.28 "Hg10 mi
12:15 AM43 °FClear.3 mph66%30.28 "Hg10 mi
11:55 PM
Sat, May 23
41 °FClear.No wind70%30.28 "Hg10 mi
11:35 PM43 °FClear.3 mph66%30.28 "Hg10 mi
11:15 PM41 °FClear.3 mph70%30.28 "Hg10 mi
10:55 PM43 °FClear.No wind61%30.28 "Hg10 mi
10:35 PM45 °FClear.No wind57%30.28 "Hg10 mi
10:15 PM46 °FClear.3 mph53%30.29 "Hg10 mi
9:55 PM46 °FClear.No wind53%30.29 "Hg10 mi
9:35 PM50 °FClear.No wind43%30.28 "Hg10 mi
9:15 PM52 °FClear.No wind38%30.28 "Hg5 mi
Weather by CustomWeather, © 2015

See weather overviewHow to use our weather pages